Weather in Sumki

Russia / Kurgan Oblast     55°02′49″N   65°43′51″E
temp.,
°C
wind,
m/s
gust,
m/s
humid.,
%
clouds,
%
prec.,
mm/h
press.,
hPa
HPBL,
m
7 may, fri
fri723:00+9wnw511455 0.0 1016340
02:00+6wnw37570 0.0 1018127
05:00+5w35600 0.0 102083
08:00+10wnw45462 0.0 1021445
11:00+15wnw44320 0.0 10221207
14:00+18w44270 0.0 10211491
17:00+19w33263 0.0 10211490
20:00+15sw22372 0.0 102111
8 may, sat
sat823:00+13ssw22395 0.0 102111
02:00+11sse2243100 0.0 102110
05:00+10sse2244100 0.0 102110
08:00+14se2335100 0.0 1021216
11:00+18ese3326100 0.0 10191188
14:00+20se4424100 0.0 10182356
17:00+21se4424100 0.0 10172590
20:00+17se3335100 0.0 101627
9 may, sun
sun923:00+15ese2236100 0.0 101626
02:00+14e2235100 0.0 101620
05:00+14ne2339100 0.0 101561
08:00+17ene4735100 0.0 10151149
11:00+18ne6833100 0.0 1014690
14:00+21ene7831100 0.0 10132567
17:00+20ne7937100 0.0 10131376
20:00+17ene4744100 0.0 1014151
10 may, mon
mon1023:00+16ne4949100 0.0 1015361
02:00+13ne4960100 0.0 1016234
05:00+13ne61265100 0.0 1017830
08:00+16ne7125540 0.0 10181273
11:00+20ene8113758 0.0 10192014
14:00+22ene782766 0.0 10192247
17:00+22ene462490 0.0 10202462
20:00+18ne33395 0.0 102021
11 may, tue
tue1123:00+15se224676 0.0 102115
02:00+12wsw365415 0.0 102284
05:00+12wsw3763100 0.0 1021114
08:00+16wsw5849100 0.0 1021311
11:00+18w4546100 0.0 1021673
14:00+14wnw7980100 0.9 1022466
17:00+12wnw5885100 2.9 1022580
20:00+10nnw7118783 0.1 1024511